Location: Strawberry
(45.6646°N, 111.9596°W)
Time: 11:02:15
(UTC+00:00)

Altair - Visible Passes

Search period start: 05 October 2022 00:00
Search period end: 15 October 2022 00:00
Orbit: 1501 x 1682 km, 47.2° (Epoch: 05 October)

Date Brightness Start Highest point End Pass type
(mag) Time Alt. Az. Time Alt. Az. Time Alt. Az.
05 Oct 9.1 09:39:21 18° SE 09:41:27 20° SE 09:47:48 10° E visible
05 Oct 8.0 11:37:24 19° SW 11:44:33 57° SE 11:54:15 10° ENE visible
06 Oct 9.1 09:15:54 17° SE 09:16:26 17° SE 09:22:11 10° E visible
06 Oct 8.0 11:13:57 27° SSW 11:19:25 54° SE 11:28:59 10° ENE visible
07 Oct 9.3 08:52:24 15° ESE 08:52:24 15° ESE 08:56:27 10° E visible
07 Oct 8.0 10:50:26 35° SSW 10:54:17 51° SE 11:03:43 10° ENE visible
07 Oct 7.7 12:48:53 10° WSW 12:58:41 89° NNW 13:08:51 10° ENE visible
08 Oct 9.5 08:28:50 12° ESE 08:28:50 12° ESE 08:30:34 10° E visible
08 Oct 8.0 10:26:53 41° S 10:29:09 47° SE 10:38:26 10° ENE visible
08 Oct 7.6 12:24:55 15° WSW 12:33:27 89° SSE 12:43:35 10° ENE visible
09 Oct 8.0 10:03:16 43° SSE 10:04:02 44° SE 10:13:09 10° ENE visible
09 Oct 7.6 12:01:18 22° WSW 12:08:13 86° SSE 12:18:20 10° ENE visible
10 Oct 8.2 09:39:37 41° SE 09:39:37 41° SE 09:47:52 10° ENE visible
10 Oct 7.5 11:37:39 32° WSW 11:43:01 84° SSE 11:53:05 10° ENE visible
11 Oct 8.5 09:15:56 35° ESE 09:15:56 35° ESE 09:22:34 10° ENE visible
11 Oct 7.5 11:13:58 43° WSW 11:17:49 81° SSE 11:27:50 10° ENE visible
12 Oct 8.8 08:52:14 28° E 08:52:14 28° E 08:57:15 10° ENE visible
12 Oct 7.5 10:50:15 57° SW 10:52:36 79° SSE 11:02:34 10° ENE visible
12 Oct 7.7 12:48:16 12° W 12:57:41 82° N 13:07:49 10° E visible
13 Oct 9.1 08:28:30 21° E 08:28:30 21° E 08:31:55 10° ENE visible
13 Oct 7.4 10:26:30 71° SSW 10:27:25 76° SSE 10:37:19 10° ENE visible
13 Oct 7.6 12:24:32 18° W 12:32:25 82° N 12:42:33 10° E visible
14 Oct 9.4 08:04:44 16° E 08:04:44 16° E 08:06:34 10° ENE visible
14 Oct 7.5 10:02:45 71° SE 10:02:45 71° SE 10:12:04 10° ENE visible
14 Oct 7.6 12:00:46 25° W 12:07:10 82° N 12:17:16 10° E visible
